www.pogodaiklimat.ru

Погода и климат >> Архив погоды >> Франция >> Paris Orly Airport


АРХИВ ПОГОДЫ в Paris Orly Airport

Время (UTC), дата Ветер
(напр.,м/с)
 
Видим.   Явления Облачность Т
(С)
Тd
(С)
f
(%)
Тe
(С)
Тes
(С)
Комфортность P
(гПа)
Po
(гПа)
Тmin
(С)
Tmax
(С)
R
(мм)
R24
(мм)
S
(см)
14 11.10 Ю 4 17 км 8/3 2000 м
[Cu hum Ac trans Ci fib]
+25.7 +9.9 37 +26 +28 жарко 1008.1 997.8
13 11.10 Ю 3 13 км 4/3 1500 м
[Cu hum Ci fib]
+25.0 +11.9 44 +27 +30 жарко 1008.2 997.9
15 11.10 Ю 3 45 км 8/3 2000 м
[Cu hum Ac trans Ci fib]
+25.2 +9.9 38 +26 +27 жарко 1008.1 997.8
16 11.10 ЮЗ 3 50 км 9/4 2000 м
[Cu hum Ac trans]
+25.2 +9.9 38 +26 +26 жарко 1008.5 998.2
17 11.10 З 4 30 км 9/6
[Sc Ac trans]
+23.7 +11.1 45 +25 +25 комфорт 1009.2 998.9
18 11.10 Ю 3 12 км слабый дождь 10/3 1500 м
[Cu med, cong Ac inh]
+20.0 +13.9 68 +22 +22 комфорт 1010.4 999.9 +16.1 +25.9 0.2
20 11.10 ЮЗ 3 4900 м гроза, ливневой дождь 9/9 1500 м
[Cb cap]
+16.3 +14.3 88 +16 +16 тепло 1012.7 1002.1 5
19 11.10 Ю 2 8000 м в посл. час дождь 9/3 1320 м
[Cb cap Ac inh]
+18.1 +14.4 79 +19 +19 тепло 1010.9 1000.4 0.6
21 11.10 Ю 2 40 км {гроза, дождь} н/о +15.6 +14.1 91 +16 +16 тепло 1013.5 1002.8 5
22 11.10 Ю 2 40 км н/о +15.2 +13.7 91 +15 +15 тепло 1014.0 1003.3
23 11.10 Ю 1 28 км н/о +15.0 +14.0 94 +15 +15 тепло 1014.3 1003.6
00 12.10 ЮВ 1 17 км {гроза, дождь} 8/6 500 м
[Sc Ac trans]
+15.4 +14.6 95 +16 +16 тепло 1014.4 1003.7
02 12.10 Ю 1 19 км 9/6 600 м
[]
+15.8 +14.7 93 +16 +16 тепло 1015.1 1004.4
01 12.10 Ю 1 20 км 9/9 330 м
[Sc]
+16.0 +14.9 93 +17 +17 тепло 1015.2 1004.5
03 12.10 Ю 1 12 км н/о +15.3 +14.5 95 +16 +16 тепло 1015.5 1004.8
04 12.10 Ю 1 16 км 4/1 300 м
[Sc Ac trans Ci fib]
+14.9 +14.1 95 +15 +15 тепло 1015.9 1005.2
05 12.10 Ю 1 15 км н/о +15.0 +14.4 96 +15 +15 тепло 1016.6 1005.9
06 12.10 Ю 2 10 км 9/9 50 м
[]
+14.9 +14.3 96 +15 +15 тепло 1016.9 1006.2 +14.8 +20.0 5
08 12.10 Ю 2 12 км н/о +16.3 +15.3 94 +17 +17 тепло 1018.0 1007.3
07 12.10 Ю 1 7000 м 9/4 120 м
[St Ci sp]
+15.2 +14.7 97 +16 +16 тепло 1017.5 1006.8 0.2
09 12.10 Ю 2 18 км 9/6 840 м
[Sc Ac trans]
+17.5 +15.5 88 +18 +19 тепло 1018.4 1007.8 0.2
10 12.10 Ю 3 23 км 9/1 1000 м
[Cu Sc Ac trans Ci sp]
+20.5 +15.9 75 +24 +26 комфорт 1018.1 1007.6
11 12.10 Ю 3 15 км 9/1 1000 м
[Cu Sc Ac trans Ci fib]
+22.0 +15.6 67 +26 +28 душно 1017.9 1007.4
12 12.10 Ю 3 30 км 9/1 1020 м
[Cu hum Ac trans Ci sp]
+22.9 +15.7 64 +27 +30 душно 1017.9 1007.5
14 12.10 ЮЗ 3 19 км 9/3 1050 м
[Cu Sc Ci sp]
+24.6 +14.7 54 +27 +29 жарко 1017.8 1007.4
13 12.10 Ю 3 30 км 9/3 1050 м
[Cu hum Ac trans Ci sp]
+24.5 +16.0 59 +28 +30 душно 1017.7 1007.3
15 12.10 ЮЗ 4 19 км 9/4 1380 м
[Cu med, cong Ci sp]
+25.5 +15.5 54 +29 +29 душно 1017.8 1007.5
16 12.10 Ю 3 30 км 8/1 1380 м
[Cu hum Ac trans Ci fib]
+24.6 +15.0 55 +27 +28 жарко 1017.9 1007.5
17 12.10 ЮЗ 2 30 км 8/1 1500 м
[Sc Ac trans Ci fib]
+23.5 +15.0 59 +26 +26 жарко 1018.2 1007.8
18 12.10 Ю 1 35 км 3/3 1500 м
[Sc]
+21.7 +15.1 66 +25 +25 комфорт 1019.0 1008.5 +14.7 +25.7
20 12.10 Ю 1 26 км ясно +20.6 +14.7 69 +25 +25 комфорт 1019.4 1008.9
19 12.10 Ю 1 26 км ясно +20.9 +15.0 69 +25 +25 комфорт 1019.2 1008.7
21 12.10 Ю 1 24 км ясно +19.2 +14.7 75 +22 +22 комфорт 1019.7 1009.1
22 12.10 Ю 1 23 км ясно +18.2 +14.5 79 +20 +20 тепло 1019.4 1008.8
23 12.10 Ю 1 19 км ясно +18.1 +14.4 79 +19 +19 тепло 1019.1 1008.5
00 13.10 Ю 1 30 км ясно +17.9 +14.2 79 +20 +20 тепло 1018.9 1008.3
02 13.10 Ю 1 30 км 1/1 1500 м
[Sc]
+16.5 +14.0 85 +17 +17 тепло 1018.9 1008.2
01 13.10 Ю 1 30 км 1/1 1500 м
[Sc]
+17.3 +14.2 82 +19 +19 тепло 1019.1 1008.5
03 13.10 ЮВ 1 21 км ясно +16.1 +13.9 87 +17 +17 тепло 1018.6 1007.9
04 13.10 Ю 1 17 км ясно +16.1 +13.8 86 +17 +17 тепло 1018.6 1007.9
05 13.10 Ю 1 30 км ясно +15.9 +13.7 87 +17 +17 тепло 1018.4 1007.7
06 13.10 Ю 1 25 км 4/0
[]
+15.8 +13.6 87 +17 +17 тепло 1018.4 1007.7 +15.8 +21.6
08 13.10 Ю 2 30 км 8/0
[]
+18.0 +14.3 79 +19 +19 тепло 1018.3 1007.7
07 13.10 ЮВ 1 25 км 6/0
[]
+16.2 +13.9 86 +18 +18 тепло 1018.3 1007.6
09 13.10 Ю 2 30 км 8/0
[]
+20.2 +14.8 71 +23 +25 комфорт 1018.0 1007.5
10 13.10 Ю 3 30 км 4/0
[]
+22.7 +15.0 62 +27 +30 душно 1017.2 1006.8
11 13.10 Ю 3 35 км 5/0
[]
+23.8 +15.0 58 +27 +30 жарко 1016.7 1006.3
12 13.10 Ю 3 30 км 6/0
[]
+25.0 +14.8 53 +28 +31 жарко 1015.4 1005.1
14 13.10 Ю 3 35 км 8/0
[]
+26.0 +13.1 45 +28 +30 жарко 1013.9 1003.6
13 13.10 Ю 3 35 км 6/0
[]
+25.9 +13.7 47 +28 +31 жарко 1014.6 1004.3
15 13.10 ЮВ 3 30 км 8/0
[]
+25.6 +13.4 47 +28 +29 жарко 1013.3 1003.0
16 13.10 ЮВ 2 35 км 9/0
[]
+24.3 +13.5 51 +27 +27 жарко 1012.6 1002.3
17 13.10 ЮВ 2 35 км 9/0
[]
+23.0 +13.5 55 +26 +26 жарко 1012.6 1002.2
18 13.10 ЮВ 2 35 км 9/0
[]
+21.7 +13.6 60 +24 +24 комфорт 1012.5 1002.1 +15.8 +26.6
20 13.10 Ю 1 30 км 4/0
[]
+19.7 +13.4 67 +23 +23 комфорт 1012.4 1001.9
19 13.10 Ю 1 30 км 4/0
[]
+21.1 +13.5 62 +24 +24 комфорт 1012.4 1002.0
21 13.10 СВ 1 23 км 4/0
[]
+19.2 +13.6 70 +22 +22 комфорт 1012.1 1001.6
22 13.10 В 1 30 км 4/0
[]
+18.3 +13.4 73 +20 +20 тепло 1011.7 1001.2
23 13.10 ЮВ 1 23 км 4/0
[]
+17.7 +13.0 74 +19 +19 тепло 1011.4 1000.8
00 14.10 ЮВ 1 30 км 4/0
[]
+17.3 +13.0 76 +19 +19 тепло 1010.5 999.9
02 14.10 ЮВ 1 24 км 4/0
[]
+16.1 +12.6 80 +17 +17 тепло 1009.4 998.8
01 14.10 Ю 2 28 км 4/0
[]
+17.0 +12.7 76 +18 +18 тепло 1009.9 999.3
03 14.10 Ю 1 30 км 4/0
[]
+15.6 +12.5 82 +17 +17 тепло 1009.0 998.4
04 14.10 В 1 20 км 6/5 1500 м
[Sc Ci fib]
+15.1 +12.6 85 +16 +16 тепло 1008.6 998.0
05 14.10 ЮВ 1 30 км 5/1 1500 м
[Sc Ci fib]
+14.8 +11.9 83 +15 +15 тепло 1007.5 996.9
06 14.10 Ю 1 30 км 6/1 1500 м
[Sc Ci sp]
+15.1 +11.5 79 +16 +16 тепло 1007.2 996.6 +14.7 +21.6
08 14.10 Ю 2 30 км 5/1 1500 м
[Sc Ci fib]
+18.0 +11.5 66 +19 +19 тепло 1007.1 996.6
07 14.10 ЮВ 2 20 км 6/1 1500 м
[Sc Ci sp]
+16.0 +11.4 74 +16 +16 тепло 1007.2 996.6
09 14.10 Ю 3 21 км 4/0
[Ac trans Ci fib]
+20.3 +11.2 56 +22 +25 комфорт 1006.6 996.2
10 14.10 Ю 3-6
{6}
19 км н/о +22.6 +11.0 48 +25 +25 комфорт 1006.4 996.1
11 14.10 Ю 3 21 км н/о +22.9 +10.7 46 +25 +25 комфорт 1006.2 995.9
12 14.10 Ю 3 27 км 8/1 300 м
[]
+25.1 +11.6 43 +27 +29 жарко 1005.5 995.3
14 14.10 Ю 2 35 км 8/3 2000 м
[Cu hum Ac As Ci fib]
+25.1 +11.6 43 +27 +28 жарко 1005.3 995.1
13 14.10 Ю 3 30 км 8/3 2000 м
[Cu hum Ac cast Ci fib]
+25.8 +11.9 42 +27 +29 жарко 1005.2 995.0
15 14.10 Ю 3 30 км 8/3 2000 м
[Cu hum Ac As Ci fib]
+25.5 +12.0 43 +27 +28 жарко 1005.0 994.8
16 14.10 ЮВ 2 23 км 8/3 2000 м
[Cu hum Ac As Ci fib]
+25.1 +12.0 44 +27 +27 жарко 1004.9 994.7
17 14.10 ЮВ 2 27 км н/о +23.6 +11.9 48 +25 +25 комфорт 1005.1 994.8
18 14.10 ЮВ 2 25 км 8/1 2000 м
[Cu hum Ac As Ci fib]
+22.5 +12.1 52 +25 +25 комфорт 1005.4 995.1 +15.1 +25.8
20 14.10 Ю 3 45 км 9/9
[]
+21.9 +11.0 50 +24 +24 комфорт 1006.2 995.8
19 14.10 ЮВ 3 30 км 9/0
[Ac As Ci fib]
+22.6 +11.3 49 +25 +25 комфорт 1005.6 995.3
21 14.10 Ю 3 35 км н/о +21.3 +10.7 51 +23 +23 комфорт 1006.4 996.0
22 14.10 Ю 3 35 км 3/0
[]
+20.6 +10.1 51 +23 +23 комфорт 1006.4 996.0
23 14.10 Ю 2 30 км ясно +20.1 +10.2 53 +22 +22 комфорт 1006.5 996.1
00 15.10 Ю 2 30 км ясно +19.6 +10.6 56 +22 +22 комфорт 1007.1 996.6
02 15.10 Ю 2 30 км 5/4 2000 м
[Sc Ac trans]
+19.0 +10.5 58 +20 +20 тепло 1007.8 997.3
01 15.10 Ю 2 30 км 5/5 1500 м
[Sc]
+19.3 +10.6 57 +21 +21 комфорт 1007.5 997.0
03 15.10 Ю 2 30 км 6/0
[Ac trans]
+19.3 +10.6 57 +21 +21 комфорт 1007.9 997.4
04 15.10 Ю 2 30 км 6/1 1500 м
[Sc Ac trans]
+19.1 +10.4 57 +21 +21 комфорт 1008.1 997.6
05 15.10 Ю 1 30 км 5/0
[Ac trans]
+18.5 +10.1 58 +20 +20 тепло 1008.7 998.2
06 15.10 Ю 1 30 км 9/0
[Ac trans Ci fib]
+17.1 +9.8 62 +19 +19 тепло 1009.2 998.6 +17.1 +22.9
08 15.10 Ю 1 15 км н/о +19.0 +10.3 57 +21 +21 комфорт 1010.3 999.8
07 15.10 Ю 1 30 км 9/0
[Ac trans Ci fib]
+16.5 +10.3 67 +18 +18 тепло 1009.8 999.2
09 15.10 Ю 3 30 км 6/0
[Ac trans Ci fib]
+21.1 +9.3 47 +22 +24 комфорт 1010.4 1000.0
10 15.10 Ю 3 19 км 6/0
[Ac trans Ci fib]
+22.4 +9.5 44 +24 +27 комфорт 1010.8 1000.4
11 15.10 Ю 4 30 км 4/0
[Ac trans Ci fib]
+24.2 +8.6 37 +25 +28 комфорт 1010.7 1000.4
12 15.10 Ю 4 30 км 4/0
[Ac trans Ci fib]
+25.3 +8.3 34 +26 +29 жарко 1010.5 1000.2
14 15.10 Ю 3 18 км н/о +25.5 +7.1 31 +25 +25 комфорт 1010.5 1000.2
13 15.10 Ю 4 30 км 4/0
[]
+25.9 +7.5 31 +26 +29 жарко 1010.3 1000.0
15 15.10 ЮВ 3 30 км 9/0
[]
+25.7 +6.3 29 +25 +26 комфорт 1010.5 1000.2
16 15.10 ЮВ 3 26 км 9/0
[]
+25.2 +5.9 29 +25 +25 комфорт 1010.9 1000.6
17 15.10 ЮВ 2 30 км 6/0
[]
+23.3 +6.1 33 +24 +24 комфорт 1011.7 1001.3
18 15.10 ЮВ 1 22 км 1/0
[]
+20.8 +7.1 41 +23 +23 комфорт 1012.8 1002.3 +16.5 +26.1
20 15.10 Ю 1 24 км ясно +18.2 +7.6 50 +20 +20 тепло 1014.2 1003.6
19 15.10 Ю 1 21 км ясно +20.6 +7.9 44 +23 +23 комфорт 1013.7 1003.2
21 15.10 В 1 20 км 9/0
[Ac trans]
+18.1 +8.4 53 +19 +19 тепло 1014.5 1003.9
22 15.10 штиль 0 22 км 9/0
[Ac trans]
+17.0 +8.4 57 +17 +17 тепло 1014.8 1004.2
23 15.10 В 1 15 км 9/0
[Ac trans]
+15.9 +9.1 64 +17 +17 тепло 1015.2 1004.5
00 16.10 ЮВ 1 14 км 9/9
[]
+14.3 +8.9 70 +15 +15 тепло 1015.6 1004.9
02 16.10 ЮВ 1 30 км 9/0
[Ac As]
+14.4 +9.4 72 +16 +16 тепло 1016.0 1005.3
01 16.10 СВ 1 30 км 8/0
[Ac As]
+14.5 +8.9 69 +16 +16 тепло 1015.9 1005.2
03 16.10 Ю 1 30 км 9/0
[Ac trans]
+14.6 +9.4 71 +16 +16 тепло 1016.1 1005.4
04 16.10 штиль 0 30 км 8/0
[Ac As]
+14.1 +8.9 71 +14 +14 тепло 1016.4 1005.6
05 16.10 ЮВ 1 30 км 8/0
[Ac As]
+13.6 +9.2 75 +15 +15 тепло 1016.9 1006.1
06 16.10 штиль 0 30 км 8/0
[Ac As]
+13.2 +9.3 77 +13 +13 тепло 1017.2 1006.4 +13.2 +20.8
08 16.10 штиль 0 10 км 4/0
[]
+17.8 +10.2 61 +18 +19 тепло 1017.6 1007.0
07 16.10 штиль 0 9000 м 3/0
[Ac trans Ci fib]
+13.9 +9.7 76 +14 +14 тепло 1017.5 1006.7
09 16.10 ЮВ 1 14 км 5/0
[]
+20.1 +9.6 51 +23 +25 комфорт 1018.0 1007.4
10 16.10 Ю 1 4600 м 8/0
[]
+22.1 +9.3 44 +24 +26 комфорт 1018.0 1007.5
11 16.10 Ю 1 17 км 8/0
[]
+23.4 +9.4 41 +25 +29 комфорт 1017.9 1007.5
12 16.10 ЮЗ 1 20 км 8/0
[]
+24.5 +9.6 39 +25 +29 комфорт 1017.6 1007.2
14 16.10 ЮЗ 1 20 км 8/0
[]
+24.8 +9.5 38 +26 +28 жарко 1017.3 1006.9
13 16.10 ЮЗ 1 20 км 8/0
[]
+24.9 +9.2 37 +26 +29 жарко 1017.5 1007.1
15 16.10 ЮЗ 2 20 км 8/0
[]
+24.6 +9.3 38 +25 +27 комфорт 1017.4 1007.0
16 16.10 ЮЗ 1 20 км 8/0
[]
+23.5 +9.8 42 +25 +25 комфорт 1017.4 1007.0
17 16.10 З 1 20 км 6/0
[]
+20.7 +9.6 49 +23 +23 комфорт 1017.8 1007.3
18 16.10 З 1 20 км 3/0
[]
+17.8 +10.2 61 +19 +19 тепло 1018.3 1007.7 +12.7 +25.4
20 16.10 З 2 20 км ясно +16.6 +11.1 70 +17 +17 тепло 1019.1 1008.4
19 16.10 З 2 20 км ясно +16.1 +10.6 70 +16 +16 тепло 1018.8 1008.1
21 16.10 З 2 20 км 1/0
[]
+15.6 +11.2 75 +16 +16 тепло 1019.3 1008.6
22 16.10 З 1 20 км 4/0
[]
+13.9 +11.1 83 +15 +15 тепло 1019.4 1008.6
23 16.10 З 1 18 км 4/0
[]
+13.0 +10.9 87 +14 +14 тепло 1019.2 1008.4
00 17.10 З 1 20 км 4/0
[]
+12.4 +10.6 89 +12 +12 тепло 1019.2 1008.4
02 17.10 З 1 15 км 4/0
[]
+11.8 +10.7 93 +12 +12 тепло 1019.2 1008.3
01 17.10 З 1 20 км 4/0
[]
+12.3 +11.0 92 +12 +12 тепло 1019.5 1008.6
03 17.10 З 2 11 км 4/0
[]
+11.5 +10.6 94 +11 +11 тепло 1018.9 1008.0
04 17.10 З 1 15 км 4/0
[]
+11.0 +10.1 94 +11 +11 тепло 1019.2 1008.3
05 17.10 З 1 12 км 4/0
[]
+10.8 +10.2 96 +10 +10 тепло 1019.3 1008.4
06 17.10 З 1 12 км 5/3 2000 м
[Sc Ci fib]
+11.0 +10.4 96 +11 +11 тепло 1019.4 1008.5 +10.6 +17.8
08 17.10 З 1 5000 м 6/1 420 м
[Sc Ac trans Ci fib]
+12.8 +12.0 95 +13 +13 тепло 1019.6 1008.8
07 17.10 СЗ 1 7000 м 6/4 1500 м
[Sc Ci fib]
+12.0 +11.5 97 +13 +13 тепло 1019.5 1008.6
09 17.10 СВ 1 17 км 8/4 2000 м
[Sc Ci fib]
+16.2 +13.1 82 +17 +18 тепло 1019.7 1009.0
10 17.10 С 1 17 км 9/9 2000 м
[Sc]
+17.5 +12.6 73 +19 +20 тепло 1019.7 1009.0
11 17.10 ЮВ 1 17 км 9/0
[Ac trans]
+18.3 +12.9 71 +20 +23 тепло 1019.6 1009.0
12 17.10 СВ 1 8000 м 10/10
[]
+19.6 +12.8 65 +23 +23 комфорт 1018.8 1008.2
14 17.10 СВ 2 14 км 8/0
[Ac trans Ci fib]
+21.2 +11.8 55 +23 +26 комфорт 1017.8 1007.3
13 17.10 С 1 17 км 8/0
[Ac trans]
+20.5 +13.0 62 +24 +27 комфорт 1018.1 1007.6
15 17.10 СВ 2 15 км 8/0
[]
+20.8 +12.5 59 +24 +25 комфорт 1017.5 1007.0
16 17.10 СВ 2 20 км 9/0
[]
+20.5 +12.5 60 +23 +24 комфорт 1017.4 1006.9
17 17.10 С 2 24 км 9/0
[]
+19.0 +11.8 63 +21 +21 комфорт 1017.9 1007.3
18 17.10 С 2 30 км 8/0
[]
+17.4 +11.4 68 +18 +18 тепло 1018.8 1008.1 +10.8 +21.4
20 17.10 С 2 25 км н/о +16.9 +11.4 70 +17 +17 тепло 1019.8 1009.1
19 17.10 С 2 29 км 8/0
[]
+17.2 +11.0 67 +18 +18 тепло 1019.4 1008.7
21 17.10 С 2 20 км 1/0
[]
+16.3 +11.4 73 +16 +16 тепло 1019.9 1009.2
22 17.10 С 2 20 км 1/0
[]
+15.5 +11.5 77 +15 +15 тепло 1020.2 1009.5
23 17.10 С 2 9000 м 1/0
[]
+15.3 +11.3 77 +15 +15 тепло 1020.2 1009.5
00 18.10 С 2 20 км ясно +14.3 +11.3 82 +14 +14 тепло 1020.3 1009.5
02 18.10 С 3 3400 м ясно +13.3 +11.4 88 +12 +12 тепло 1020.3 1009.5
01 18.10 С 2 20 км ясно +13.9 +11.4 85 +13 +13 тепло 1020.3 1009.5
03 18.10 С 3 4000 м ясно +12.9 +11.0 88 +12 +12 тепло 1020.4 1009.6
04 18.10 С 3 6000 м ясно +12.6 +10.3 86 +11 +11 тепло 1020.8 1009.9
05 18.10 С 2 9000 м ясно +12.3 +9.8 85 +11 +11 тепло 1020.9 1010.0
06 18.10 С 3 5000 м ясно +12.2 +9.9 86 +11 +11 тепло 1021.1 1010.2 +12.1 +17.7
08 18.10 СВ 3 5000 м ясно +13.7 +10.9 83 +13 +13 тепло 1021.9 1011.1
07 18.10 С 3 10 км ясно +12.4 +10.1 86 +11 +11 тепло 1021.4 1010.5
09 18.10 СВ 4 10 км ясно +15.2 +11.4 78 +14 +16 тепло 1021.9 1011.1
10 18.10 СВ 3 4600 м ясно +17.0 +11.7 71 +17 +20 тепло 1021.7 1011.0
11 18.10 СВ 3 14 км ясно +18.5 +12.0 66 +19 +24 тепло 1021.4 1010.8

 

Местоположение метеостанции Paris Orly Airport (Франция): широта 48.72 долгота 2.38 высота над уровнем моря 90 м.

В архиве по умолчанию представлена погода в Paris Orly Airport за последнюю неделю. Архивные данные за месяц целиком и за предыдущие месяцы, начиная с января 2011 года, Вы можете получить, выбрав интересующий диапазон дат из раскрывающегося списка и нажав кнопку "Ввод!".


*Определитесь, кто Вы:
робот инопланетянин человек

Внимание! Время в таблицах - всемирное. Для получения местного времени необходимо прибавить поправку, которая в Paris Orly Airport равна 1 ч.

Смотрите также архив погоды в соседних городах и на ближайших метеорологических станциях:

Погода в Paris (Франция) (12 км)
Погода в Villacoublay (Франция) (14 км)
Погода в Melun (Франция) (25 км)
Погода в Le Bourget (Франция) (28 км)
Погода в Trappes (Франция) (28 км)
Погода в Charles De Gaulle Airport (Франция) (35 км)
Погода в Cormeilles (Франция) (48 км)
Погода в Creil (Франция) (60 км)
Погода в Chartres (Франция) (70 км)
Погода в Beauvais (Франция) (86 км)

Пояснения к столбцам:

Ветер - указаны скорость ветра в м/с - средняя за 10 мин, порывы в срок и между сроками (в фигурных скобках) и направление, откуда дует ветер: С - северный, СВ - северо-восточный, В - восточный, ЮВ - юго-восточный, Ю - южный, ЮЗ - юго-западный, З - западный, СЗ - северо-западный.
Видимость - горизонтальная дальность видимости в метрах или километрах. При видимости от 1 до 10 км при отсутствии осадков обычно наблюдается дымка, при ухудшении видимости до 1 км и менее - туман. В сухую погоду видимость может ухудшаться дымом, пылью или мглою.
Явления - указаны атмосферные явления, наблюдавшиеся в срок или в последний час перед сроком; фигурными скобками обозначены явления, наблюдавшиеся между сроками (за 1-3 часа до срока); квадратными скобками обозначены град или гололедные отложения с указанием их диаметра в мм.
Облачность - указаны через наклонную черту общая и нижняя облачность в баллах и высота нижней границы облаков в метрах; квадратными скобками обозначены формы облаков: Ci - перистые, Cs - перисто-слоистые, Cc - перисто-кучевые, Ac - высококучевые, As - высокослоистые, Sc - слоисто-кучевые, Ns - слоисто-дождевые, Cu - кучевые, Cb - кучево-дождевые. Подробнее классификацию облаков см. в Атласе облаков (PDF).
T - Температура воздуха - температура, измеренная на высоте 2 м над землей.
Td - Температура точки росы - температура, при понижении до которой содержащийся в воздухе водяной пар достигнет насыщения.
f - Относительная влажность воздуха - влажноcть воздуха, измеренная на высоте 2 м над землей.
Te - Эффективная температура - температура, которую ощущает одетый по сезону человек в тени. Характеристика душности погоды. При расчете учитывается влияние влажности воздуха и скорости ветра на теплоощущения человека.
Tes - Эффективная температура на солнце - температура, которую ощущает человек, с поправкой на солнечный нагрев. Характеристика знойности погоды. Зависит от высоты солнца над горизонтом, облачности и скорости ветра. Ночью, в пасмурную погоду, а также при ветре 12 м/с и более поправка равна нулю.
P - Атмосферное давление - приведенное к уровню моря атмосферное давление.
Po - Атмосферное давление - измеренное на уровне метеостанции атмосферное давление.
Tmin - Минимальная температура - минимум температуры воздуха на высоте 2 м над землей.
Tmax - Максимальная температура - максимум температуры воздуха на высоте 2 м над землей.
R - Количество осадков - Количество выпавших осадков за период времени, мм. При наведении курсора мыши на число - период времени, за который выпало указанное количество осадков.
R24 - Количество осадков - Количество выпавших осадков за 24 часа, мм.
S - Снежный покров - Высота снежного покрова, см. При наведении курсора мыши на число - состояние снежного покрова и степень покрытия местности в баллах.